K8HC Weather Reports


Display with metric or nautical units.
time (UTC)temp
F
wind
direction
speed
MPH
gust
MPH
rain 1hr
in
rain 24hr
in
rain mn
in
humidity
%
barometer
mb
20260503230003 60 0 0.0 2.0 0.00 0.00 0.00 34 1014.5
20260503225618 60 0 0.0 2.0 0.00 0.00 0.00 34 1014.6
20260503224503 61 265 1.0 2.0 0.00 0.00 0.00 33 1014.4
20260503223603 60 267 1.0 3.0 0.00 0.00 0.00 32 1014.5
20260503222703 61 0 0.0 4.0 0.00 0.00 0.00 32 1014.5
20260503222017 61 0 0.0 2.0 0.00 0.00 0.00 34 1014.5
20260503220903 61 258 1.0 4.0 0.00 0.00 0.00 33 1014.6
20260503220003 62 248 1.0 4.0 0.00 0.00 0.00 32 1014.6
20260503215403 62 201 1.0 5.0 0.00 0.00 0.00 32 1014.6
20260503214503 63 132 2.0 7.0 0.00 0.00 0.00 32 1014.5
20260503213818 64 145 1.0 5.0 0.00 0.00 0.00 29 1014.6
20260503212703 65 283 1.0 4.0 0.00 0.00 0.00 30 1014.5
20260503212018 64 323 1.0 5.0 0.00 0.00 0.00 29 1014.7
20260503210903 64 344 1.0 3.0 0.00 0.00 0.00 28 1014.7
20260503210217 64 178 1.0 3.0 0.00 0.00 0.00 28 1014.7
20260503205403 64 340 1.0 3.0 0.00 0.00 0.00 28 1014.8
20260503204503 64 307 2.0 4.0 0.00 0.00 0.00 29 1014.7
20260503203603 64 258 1.0 3.0 0.00 0.00 0.00 28 1014.6
20260503202921 64 321 1.0 3.0 0.00 0.00 0.00 30 1014.9
20260503201803 65 286 2.0 4.0 0.00 0.00 0.00 27 1014.9
20260503200903 67 1 1.0 4.0 0.00 0.00 0.00 26 1015.1
20260503200003 67 65 1.0 3.0 0.00 0.00 0.00 28 1015.0
20260503195620 66 257 1.0 5.0 0.00 0.00 0.00 29 1015.1
20260503194503 66 264 1.0 5.0 0.00 0.00 0.00 26 1015.2
20260503193603 65 240 1.0 4.0 0.00 0.00 0.00 29 1015.5
20260503192917 65 266 2.0 4.0 0.00 0.00 0.00 28 1015.5
20260503192019 66 278 2.0 5.0 0.00 0.00 0.00 28 1015.6
20260503191122 64 268 1.0 6.0 0.00 0.00 0.00 28 1015.7
20260503190219 65 233 1.0 3.0 0.00 0.00 0.00 26 1015.7
20260503185403 64 246 1.0 4.0 0.00 0.00 0.00 28 1015.7
20260503184503 65 127 1.0 3.0 0.00 0.00 0.00 27 1016.0
20260503183820 64 280 2.0 6.0 0.00 0.00 0.00 27 1016.1
20260503182704 64 260 1.0 4.0 0.00 0.00 0.00 27 1016.2
20260503181803 63 266 2.0 6.0 0.00 0.00 0.00 28 1016.1
20260503180903 64 261 2.0 6.0 0.00 0.00 0.00 28 1016.1
20260503180004 64 276 2.0 5.0 0.00 0.00 0.00 28 1016.2
20260503175403 64 312 2.0 6.0 0.00 0.00 0.00 28 1016.2
20260503174503 64 276 1.0 6.0 0.00 0.00 0.00 27 1016.4
20260503173603 63 298 1.0 4.0 0.00 0.00 0.00 31 1016.6
20260503172703 62 305 1.0 4.0 0.00 0.00 0.00 29 1016.7
20260503171803 63 270 1.0 5.0 0.00 0.00 0.00 31 1016.8
20260503170903 62 291 1.0 5.0 0.00 0.00 0.00 29 1016.7
20260503150903 54 273 2.0 5.0 0.00 0.00 0.00 43 1017.8
20260503150221 54 291 2.0 5.0 0.00 0.00 0.00 45 1017.8
20260503130903 44 0 0.0 4.0 0.00 0.00 0.00 61 1018.2
20260503120218 39 0 0.0 0.0 0.00 0.00 0.00 73 1017.9
20260503080903 39 0 0.0 0.0 0.00 0.00 0.00 76 1015.8
20260503072703 38 0 0.0 0.0 0.00 0.00 0.00 82 1015.5
20260503071803 38 0 0.0 0.0 0.00 0.00 0.00 82 1015.5
20260503070903 38 0 0.0 0.0 0.00 0.00 0.00 82 1015.4
20260503054503 38 0 0.0 0.0 0.00 0.00 0.00 79 1015.3
20260503053603 38 0 0.0 0.0 0.00 0.00 0.00 78 1015.4
20260503052703 38 0 0.0 0.0 0.00 0.00 0.00 77 1015.3
20260503052018 38 0 0.0 0.0 0.00 0.00 0.00 76 1015.2
20260503050903 39 0 0.0 0.0 0.00 0.00 0.00 75 1015.3
20260503050003 40 0 0.0 0.0 0.00 0.00 0.00 75 1015.3
20260503045403 40 0 0.0 0.0 0.00 0.00 0.00 74 1015.4
20260503044721 40 0 0.0 0.0 0.00 0.00 0.00 73 1015.4
20260503043603 41 0 0.0 0.0 0.00 0.00 0.00 72 1015.4
20260503042703 41 0 0.0 0.0 0.00 0.00 0.00 73 1015.6
20260503041803 41 0 0.0 0.0 0.00 0.00 0.00 72 1015.5
20260503040903 41 0 0.0 0.0 0.00 0.00 0.00 71 1015.4
20260503040004 41 0 0.0 0.0 0.00 0.00 0.00 70 1015.5
20260503035403 42 0 0.0 0.0 0.00 0.00 0.00 70 1015.5
20260503034503 42 0 0.0 0.0 0.00 0.00 0.00 68 1015.5
20260503033603 42 0 0.0 0.0 0.00 0.00 0.00 68 1015.4
20260503032703 43 0 0.0 0.0 0.00 0.00 0.00 66 1015.4
20260503031803 43 0 0.0 0.0 0.00 0.00 0.00 66 1015.5
20260503030903 44 0 0.0 0.0 0.00 0.00 0.00 64 1015.5
20260503030003 44 0 0.0 1.0 0.00 0.00 0.00 63 1015.6
20260503025403 44 0 0.0 1.0 0.00 0.00 0.00 62 1015.6
20260503024503 45 318 1.0 4.0 0.00 0.00 0.00 61 1015.6
20260503023820 45 296 1.0 3.0 0.00 0.00 0.00 61 1015.6
20260503022703 46 302 1.0 3.0 0.00 0.00 0.00 60 1015.7
20260503021803 46 211 1.0 5.0 0.00 0.00 0.00 59 1015.9
20260503020903 46 307 1.0 3.0 0.00 0.00 0.00 59 1015.7
20260503020003 46 349 1.0 4.0 0.00 0.00 0.00 60 1015.7
20260503015403 47 26 1.0 4.0 0.00 0.00 0.00 60 1015.7
20260503014503 47 0 0.0 5.0 0.00 0.00 0.00 61 1015.6
20260503013820 47 0 0.0 2.0 0.00 0.00 0.00 61 1015.5
20260503012703 47 0 0.0 3.0 0.00 0.00 0.00 60 1015.2
20260503011803 48 0 0.0 3.0 0.00 0.00 0.00 59 1015.2
20260503010903 48 0 0.0 2.0 0.00 0.00 0.00 58 1015.0
20260503010004 49 0 0.0 2.0 0.00 0.00 0.00 57 1014.9
20260503005403 49 0 0.0 1.0 0.00 0.00 0.00 56 1014.8
20260503004503 49 0 0.0 4.0 0.00 0.00 0.00 56 1014.7
20260503003821 50 0 0.0 2.0 0.00 0.00 0.00 55 1014.6
20260503002703 50 0 0.0 2.0 0.00 0.00 0.00 55 1014.4
20260503001803 50 315 1.0 3.0 0.00 0.00 0.00 54 1014.3
20260503000903 50 0 0.0 2.0 0.00 0.00 0.00 54 1014.1
20260503000003 51 15 1.0 3.0 0.00 0.00 0.00 51 1014.1
20260502235403 51 0 0.0 2.0 0.00 0.00 0.00 53 1013.9
20260502234503 51 0 0.0 1.0 0.00 0.00 0.00 51 1013.7
20260502233603 52 0 0.0 2.0 0.00 0.00 0.00 52 1013.5
20260502232703 52 0 0.0 1.0 0.00 0.00 0.00 51 1013.6
20260502231803 52 0 0.0 1.0 0.00 0.00 0.00 51 1013.5
20260502230903 53 0 0.0 1.0 0.00 0.00 0.00 49 1013.5